Date String (YYYY-MM-DD hh:mm:ss) UTC,Instrument flags,Ambient pressure (hPa),Sample flow (lpm),Bypass flow (lpm),Sample temperature (°C),Ambient temperature (°C),ASC tube jacket temperature (°C),LED temperature (°C),Box temperature (°C),Sample RH (%),Span deviation,Mass concentration (μg/m³),Mass concentration (μg/m³),Mass concentration (μg/m³)
DateTimeUTC,F1_M11,P_M11,Q1_M11,Q2_M11,T1_M11,T2_M11,T3_M11,T4_M11,T5_M11,U1_M11,ZSPAN_M11,X0_M11,X2_M11,X1_M11
2022-05-30 16:00:00,,0812.8,5.01,0.00,25.3,24.0,00.0,34.2,27.2,13.3,0000.0,0002.71,0000.66,0000.40
2022-05-30 16:01:00,,0812.7,5.02,0.00,25.3,24.0,00.0,34.2,27.2,13.2,0000.0,0002.76,0000.67,0000.41
2022-05-30 16:02:00,,0812.8,4.99,0.00,25.3,24.0,00.0,34.2,27.2,13.0,0000.0,0002.85,0000.69,0000.41
2022-05-30 16:03:00,,0812.7,5.01,0.00,25.3,24.0,00.0,34.2,27.2,12.8,0000.0,0002.92,0000.72,0000.40
2022-05-30 16:04:00,,0812.8,5.01,0.00,25.3,24.0,00.0,34.2,27.2,12.3,0000.0,0002.25,0000.72,0000.40
2022-05-30 16:05:00,,0812.8,5.00,0.00,25.3,24.0,00.0,34.2,27.1,13.1,0000.0,0001.54,0000.74,0000.40
2022-05-30 16:06:00,,0812.8,5.00,0.00,25.3,24.0,00.0,34.2,27.2,13.2,0000.0,0001.46,0000.72,0000.39
2022-05-30 16:07:00,,0812.8,5.01,0.00,25.3,24.0,00.0,34.2,27.2,12.2,0000.0,0001.56,0000.75,0000.40
2022-05-30 16:08:00,,0812.8,4.99,0.00,25.2,24.0,00.0,34.2,27.1,12.4,0000.0,0001.55,0000.74,0000.39
2022-05-30 16:09:00,,0812.9,5.01,0.00,25.2,24.0,00.0,34.2,27.2,12.9,0000.0,0001.62,0000.76,0000.39
2022-05-30 16:10:00,,0812.8,5.01,0.00,25.3,24.0,00.0,34.2,27.2,13.2,0000.0,0001.70,0000.78,0000.38
2022-05-30 16:11:00,,0812.8,5.00,0.00,25.3,24.0,00.0,34.2,27.2,11.9,0000.0,0001.84,0000.77,0000.38
2022-05-30 16:12:00,,0812.6,5.01,0.00,25.3,24.0,00.0,34.2,27.2,12.4,0000.0,0002.18,0000.77,0000.37
2022-05-30 16:13:00,,0812.6,4.99,0.00,25.2,24.0,00.0,34.2,27.2,12.0,0000.0,0002.20,0000.76,0000.37
2022-05-30 16:14:00,,0812.7,4.99,0.00,25.2,24.0,00.0,34.2,27.2,12.1,0000.0,0002.02,0000.71,0000.37
2022-05-30 16:15:00,,0812.8,5.00,0.00,25.2,24.0,00.0,34.2,27.2,12.0,0000.0,0002.04,0000.71,0000.36
2022-05-30 16:16:00,,0812.8,4.99,0.00,25.2,24.1,00.0,34.2,27.2,12.0,0000.0,0002.04,0000.71,0000.37
2022-05-30 16:17:00,,0812.7,5.00,0.00,25.2,24.1,00.0,34.2,27.2,12.2,0000.0,0002.05,0000.70,0000.37
2022-05-30 16:18:00,,0812.6,5.01,0.00,25.2,24.1,00.0,34.2,27.2,12.7,0000.0,0002.03,0000.70,0000.38
2022-05-30 16:19:00,,0812.6,5.00,0.00,25.2,24.1,00.0,34.2,27.2,12.4,0000.0,0002.05,0000.70,0000.39
2022-05-30 16:20:00,,0812.6,5.00,0.00,25.2,24.0,00.0,34.2,27.2,12.4,0000.0,0002.06,0000.71,0000.39
2022-05-30 16:21:00,,0812.6,5.00,0.00,25.2,24.0,00.0,34.2,27.2,12.7,0000.0,0002.03,0000.70,0000.39
2022-05-30 16:22:00,,0812.6,5.00,0.00,25.2,24.0,00.0,34.2,27.2,12.1,0000.0,0002.07,0000.72,0000.39
2022-05-30 16:23:00,,0812.7,5.00,0.00,25.2,24.0,00.0,34.2,27.2,12.2,0000.0,0001.74,0000.77,0000.39
2022-05-30 16:24:00,,0812.7,5.00,0.00,25.2,24.0,00.0,34.2,27.1,11.7,0000.0,0001.80,0000.77,0000.38
2022-05-30 16:25:00,,0812.7,5.00,0.00,25.2,24.0,00.0,34.2,27.2,12.1,0000.0,0002.91,0000.78,0000.39
2022-05-30 16:26:00,,0812.8,5.00,0.00,25.2,24.0,00.0,34.2,27.2,11.8,0000.0,0003.56,0000.76,0000.39
2022-05-30 16:27:00,,0812.7,5.00,0.00,25.2,24.0,00.0,34.2,27.2,12.5,0000.0,0003.51,0000.75,0000.39
2022-05-30 16:28:00,,0812.8,4.99,0.00,25.3,24.0,00.0,34.2,27.2,12.5,0000.0,0003.48,0000.75,0000.41
2022-05-30 16:29:00,,0812.7,5.00,0.00,25.2,24.1,00.0,34.2,27.2,12.2,0000.0,0003.50,0000.75,0000.41
2022-05-30 16:30:00,,0812.8,5.01,0.00,25.2,24.1,00.0,34.2,27.2,12.6,0000.0,0003.49,0000.74,0000.41
2022-05-30 16:31:00,,0812.7,4.99,0.00,25.2,24.1,00.0,34.2,27.2,12.9,0000.0,0003.63,0000.77,0000.41
2022-05-30 16:32:00,,0812.8,5.00,0.00,25.2,24.1,00.0,34.2,27.2,12.1,0000.0,0003.64,0000.76,0000.41
2022-05-30 16:33:00,,0812.8,5.01,0.00,25.2,24.1,00.0,34.2,27.2,12.9,0000.0,0003.59,0000.77,0000.42
2022-05-30 16:34:00,,0812.9,5.00,0.00,25.2,24.1,00.0,34.2,27.2,12.9,0000.0,0003.67,0000.79,0000.43
2022-05-30 16:35:00,,0812.8,4.99,0.00,25.2,24.1,00.0,34.2,27.2,12.0,0000.0,0003.43,0000.75,0000.44
2022-05-30 16:36:00,,0812.7,5.01,0.00,25.3,24.1,00.0,34.2,27.2,12.5,0000.0,0002.88,0000.74,0000.44
2022-05-30 16:37:00,,0812.7,5.01,0.00,25.2,24.1,00.0,34.2,27.2,12.5,0000.0,0001.56,0000.73,0000.44
2022-05-30 16:38:00,,0812.7,4.99,0.00,25.2,24.1,00.0,34.2,27.2,12.0,0000.0,0001.56,0000.74,0000.44
2022-05-30 16:39:00,,0812.9,5.00,0.00,25.3,24.1,00.0,34.2,27.2,12.2,0000.0,0001.59,0000.73,0000.41
2022-05-30 16:40:00,,0812.9,5.00,0.00,25.3,24.1,00.0,34.2,27.2,12.8,0000.0,0001.52,0000.69,0000.39
2022-05-30 16:41:00,,0812.9,4.99,0.00,25.3,24.1,00.0,34.2,27.2,11.6,0000.0,0001.45,0000.67,0000.38
2022-05-30 16:42:00,,0812.8,4.99,0.00,25.3,24.1,00.0,34.2,27.2,11.6,0000.0,0001.33,0000.66,0000.38
2022-05-30 16:43:00,,0812.8,5.00,0.00,25.3,24.1,00.0,34.2,27.2,11.9,0000.0,0001.31,0000.65,0000.37
2022-05-30 16:44:00,,0812.7,5.00,0.00,25.3,24.1,00.0,34.2,27.2,12.1,0000.0,0001.34,0000.65,0000.37
2022-05-30 16:45:00,,0812.9,4.99,0.00,25.3,24.1,00.0,34.2,27.2,11.3,0000.0,0002.26,0000.62,0000.36
2022-05-30 16:46:00,,0812.8,5.01,0.00,25.2,24.1,00.0,34.2,27.2,11.6,0000.0,0002.77,0000.63,0000.36
2022-05-30 16:47:00,,0812.8,5.00,0.00,25.2,24.1,00.0,34.2,27.2,11.5,0000.0,0002.77,0000.63,0000.35
2022-05-30 16:48:00,,0812.8,5.00,0.00,25.2,24.1,00.0,34.2,27.2,12.0,0000.0,0003.58,0000.67,0000.36
2022-05-30 16:49:00,,0812.8,5.00,0.00,25.2,24.1,00.0,34.2,27.2,12.0,0000.0,0003.78,0000.73,0000.36
2022-05-30 16:50:00,,0812.8,5.00,0.00,25.2,24.1,00.0,34.2,27.1,12.4,0000.0,0003.87,0000.76,0000.37
2022-05-30 16:51:00,,0812.8,4.99,0.00,25.2,24.1,00.0,34.2,27.2,12.4,0000.0,0003.97,0000.82,0000.38
2022-05-30 16:52:00,,0812.9,5.00,0.00,25.2,24.1,00.0,34.2,27.2,12.3,0000.0,0005.13,0000.81,0000.38
2022-05-30 16:53:00,,0812.8,5.01,0.00,25.2,24.1,00.0,34.2,27.2,12.7,0000.0,0005.53,0000.79,0000.38
2022-05-30 16:54:00,,0812.7,5.00,0.00,25.2,24.1,00.0,34.2,27.2,12.8,0000.0,0005.46,0000.78,0000.39
2022-05-30 16:55:00,,0812.7,5.00,0.00,25.2,24.1,00.0,34.2,27.2,12.5,0000.0,0005.37,0000.75,0000.38
2022-05-30 16:56:00,,0812.6,5.01,0.00,25.2,24.1,00.0,34.2,27.1,12.7,0000.0,0004.38,0000.73,0000.38
2022-05-30 16:57:00,,0812.8,5.00,0.00,25.2,24.1,00.0,34.2,27.1,12.5,0000.0,0003.82,0000.75,0000.39
2022-05-30 16:58:00,,0812.7,4.99,0.00,25.2,24.0,00.0,34.2,27.1,12.0,0000.0,0003.79,0000.74,0000.40
2022-05-30 16:59:00,,0812.8,4.99,0.00,25.2,24.0,00.0,34.2,27.1,12.3,0000.0,0003.04,0000.73,0000.40
